CDT,Max TemperatureF,Mean TemperatureF,Min TemperatureF,Max Dew PointF,MeanDew PointF,Min DewpointF,Max Humidity, Mean Humidity, Min Humidity, Max Sea Level PressureIn, Mean Sea Level PressureIn, Min Sea Level PressureIn, Max VisibilityMiles, Mean VisibilityMiles, Min VisibilityMiles, Max Wind SpeedMPH, Mean Wind SpeedMPH, Max Gust SpeedMPH,PrecipitationIn, CloudCover, Events, WindDirDegrees
2013-5-1,55,44,33,37,33,27,93,80,45,30.49,30.29,29.98,10,7,2,17,10,25,0.27,8,Rain-Snow,332
2013-5-2,48,42,36,27,26,24,70,56,42,30.55,30.49,30.43,10,10,10,16,11,22,0.00,4,,359
2013-5-3,37,35,33,32,29,23,89,79,62,30.42,30.23,30.15,10,6,0,18,12,28,0.04,7,Fog-Rain-Snow,15
2013-5-4,51,42,33,40,35,30,92,81,68,30.18,30.15,30.12,10,10,3,13,9,22,0.03,8,Rain,15
2013-5-5,66,52,39,47,40,35,89,71,48,30.19,30.14,30.08,10,10,10,9,5,,0.01,4,Rain,357
2013-5-6,75,60,48,46,45,43,83,56,34,30.11,30.06,30.01,10,10,7,7,3,,0.00,2,,350
2013-5-7,79,64,51,50,46,42,83,52,29,30.06,30.01,29.95,10,10,8,12,2,16,0.00,0,,171
2013-5-8,75,68,60,56,51,45,86,61,35,30.00,29.97,29.93,10,9,2,13,3,,0.13,5,Rain,7
2013-5-9,60,54,46,54,46,28,83,73,50,30.10,30.01,29.94,10,10,9,20,10,31,0.01,8,Rain,26
2013-5-10,66,52,37,39,26,21,68,40,18,30.12,30.03,29.88,10,10,10,12,7,,0.00,2,Rain,353
2013-5-11,57,48,41,37,25,19,61,43,28,30.19,30.08,29.88,10,10,10,29,17,37,0.00,2,,329
2013-5-12,59,48,36,24,20,14,59,37,17,30.24,30.17,30.10,10,10,10,13,6,23,0.00,0,,327
2013-5-13,73,56,41,46,33,20,55,40,26,30.12,29.93,29.64,10,10,10,22,7,31,0.00,1,Rain,157
2013-5-14,99,76,53,52,45,29,77,39,13,29.67,29.59,29.42,10,10,10,23,8,36,0.00,0,,246
2013-5-15,79,66,55,48,45,40,67,46,27,29.91,29.83,29.69,10,10,10,16,9,24,0.00,0,,266
2013-5-16,82,68,55,48,42,31,67,40,23,29.91,29.87,29.83,10,10,9,22,7,29,0.00,1,Rain,80
2013-5-17,64,60,55,55,52,41,94,82,43,29.99,29.95,29.88,10,6,2,13,10,22,0.35,8,Rain,95
2013-5-18,82,68,55,65,57,54,100,86,52,30.00,29.92,29.77,10,4,0,20,9,24,1.97,6,Fog-Rain-Thunderstorm,105
2013-5-19,80,72,64,66,63,61,100,84,60,29.78,29.67,29.54,10,7,1,20,10,30,0.79,5,Rain-Thunderstorm,133
2013-5-20,73,66,59,62,59,56,94,80,59,29.57,29.53,29.49,10,9,2,18,9,29,0.23,7,Rain-Thunderstorm,156
2013-5-21,63,56,48,58,54,46,94,91,82,29.70,29.61,29.50,10,6,1,12,7,,0.21,8,Rain,34
2013-5-22,54,50,46,49,45,42,93,87,66,29.99,29.78,29.70,10,7,2,17,10,30,0.22,8,Rain,21
2013-5-23,64,54,44,42,34,27,80,50,26,30.35,30.22,30.01,10,10,10,14,10,21,0.00,0,,28
2013-5-24,70,56,42,52,40,28,83,55,35,30.39,30.30,30.22,10,10,6,15,7,23,0.20,2,Rain-Thunderstorm,123
2013-5-25,61,58,54,50,47,40,86,70,55,30.25,30.24,30.22,10,10,10,21,12,28,0.01,8,Rain,127
2013-5-26,57,55,53,47,42,36,69,61,47,30.21,30.15,30.03,10,10,10,21,12,26,0.00,7,,111
2013-5-27,61,57,53,55,51,46,94,83,65,30.03,29.92,29.82,10,6,1,15,10,23,0.05,8,Rain,92
2013-5-28,61,56,53,56,54,51,94,89,82,29.82,29.75,29.71,10,7,1,12,6,,0.11,8,Rain,85
2013-5-29,75,64,53,69,60,53,100,86,73,29.82,29.73,29.63,10,6,0,15,7,20,0.24,6,Fog-Rain-Thunderstorm,125
2013-5-30,77,70,64,64,62,60,94,81,64,29.67,29.58,29.51,10,9,1,21,11,31,0.30,6,Rain-Thunderstorm,159
2013-5-31,78,70,62,63,57,50,88,70,39,29.55,29.52,29.49,10,10,2,23,13,34,0.29,4,Rain-Thunderstorm,183